Location: Kellogg
(38.0159°N, 90.0546°W)
Time: 02:50:57
(UTC+00:00)

SR - Pass Details

Date: 19 September 2024
Orbit: 578 x 855 km, 66.7° (Epoch: 08 October)

Event Time Altitude Azimuth Distance (km) Brightness Sun altitude
Rises 03:40:49 0° 327° (NNW) 2,988 ? -40.1°
Reaches altitude 10° 03:43:04 10° 323° (NW) 2,113 ? -40.4°
Enters shadow 03:43:33 13° 322° (NW) 1,930 ? -40.5°
